Wind_Speed
39 40 40 40 39 38 38 37 36 36 35 34 34 34 34 33 32 31 30 28 27 28 27 25 24 23 22 22 21 21 21 21 20 21 21 21 21 21 22 22 23 23 24
39 40 40 40 40 39 39 38 38 37 36 36 35 35 36 35 34 33 32 31 29 29 28 28 27 25 25 24 23 23 23 23 23 23 24 24 24 24 24 24 25 25 26
40 40 39 39 40 41 40 40 39 39 38 38 38 37 36 36 36 36 35 33 32 31 30 29 29 28 27 26 26 25 25 25 25 25 26 26 26 26 27 27 27 27 28
39 40 40 39 40 41 41 41 41 40 39 39 39 39 38 37 37 37 36 35 34 33 32 31 30 30 29 29 28 28 28 28 28 28 28 28 28 28 28 28 29 29 30
38 39 39 40 41 42 42 41 41 41 41 41 40 40 40 39 38 38 37 36 36 35 34 34 33 32 32 32 31 30 30 30 30 30 30 30 30 30 30 30 30 30 31
38 39 39 40 41 42 43 42 42 42 42 42 42 41 40 40 39 39 39 39 38 37 36 35 35 34 33 33 33 32 32 31 32 32 32 32 32 31 31 31 32 32 33
39 39 40 42 42 41 42 43 42 42 43 43 43 43 42 42 41 41 40 40 40 39 38 37 36 35 35 34 34 34 34 35 34 33 33 33 33 33 33 33 34 34 35
39 40 40 41 42 42 43 43 42 42 43 43 43 44 43 43 43 43 41 41 41 40 39 39 38 37 36 36 35 35 35 36 35 35 34 34 35 35 35 36 36 36 36
38 39 40 42 42 43 43 43 42 42 42 42 42 43 44 44 43 42 42 41 40 40 40 39 39 39 38 37 36 37 37 36 36 36 36 37 37 37 37 37 38 38 39
37 39 40 41 42 42 43 43 43 43 43 44 44 45 45 44 44 43 43 42 41 41 41 40 40 40 40 39 39 38 38 38 37 38 38 39 39 39 39 39 40 41 41
35 37 38 40 41 42 44 44 43 44 45 45 45 44 45 45 46 46 45 44 44 44 44 43 42 41 41 41 41 40 39 39 40 40 40 41 41 41 41 42 42 43 43
34 35 36 37 39 41 43 43 44 45 45 46 46 46 46 46 46 46 46 46 45 44 44 44 44 43 42 42 42 42 42 42 42 42 42 42 43 43 43 44 45 45 45
34 36 37 37 38 40 41 42 43 44 45 46 47 47 48 48 48 48 47 47 46 46 46 46 46 45 44 43 43 43 44 44 43 44 44 44 45 46 46 46 47 47 47
34 36 36 38 38 39 41 42 42 45 46 47 47 48 49 48 48 48 49 49 48 47 46 46 46 46 46 45 45 45 45 45 45 46 46 47 47 47 48 49 49 49 49
33 35 36 38 38 40 40 41 43 44 45 46 47 49 50 50 49 48 48 49 49 48 47 47 47 46 47 48 48 48 48 48 48 49 49 49 49 49 50 50 51 51 51
33 35 36 37 38 39 39 41 42 43 46 46 47 48 49 49 50 49 49 49 49 49 50 49 49 49 49 50 50 48 49 50 49 49 50 50 50 50 51 51 51 52 52
33 34 36 37 37 38 39 41 42 44 45 46 46 48 48 48 49 49 49 48 49 50 50 50 50 51 50 51 51 50 50 51 51 50 51 51 51 51 52 53 53 53 54
33 34 36 37 38 38 39 40 42 43 45 45 46 48 48 48 48 49 49 48 48 49 50 50 50 51 51 51 51 52 52 52 52 52 52 52 53 53 53 54 55 56 56
33 35 36 37 37 38 38 39 40 42 44 44 45 46 47 47 47 48 48 48 48 49 50 50 49 50 51 51 52 52 52 53 53 53 53 54 54 55 55 56 57 57 58
34 34 35 35 36 37 38 38 39 41 42 43 44 45 46 46 46 47 47 48 49 50 51 50 49 50 51 51 52 53 53 54 53 53 53 54 55 56 57 58 58 59 59
33 33 34 34 35 36 36 37 39 39 40 41 42 44 45 45 45 46 47 48 49 50 51 51 50 50 51 52 52 53 53 54 53 54 54 55 56 57 58 59 59 59 60
33 33 33 34 34 34 34 35 37 38 38 39 39 41 42 44 44 46 46 47 48 49 49 50 50 50 50 52 52 52 53 54 54 55 56 57 58 58 59 59 59 59 60
31 32 32 32 32 32 33 34 34 35 37 38 38 39 40 42 43 44 46 46 47 47 47 48 49 49 50 51 52 52 53 54 55 56 57 57 58 59 59 59 59 59 60
30 31 30 30 31 31 32 34 34 35 36 38 38 39 40 41 42 44 45 45 46 47 47 48 48 48 49 50 51 52 52 54 55 56 57 57 58 58 58 58 59 60 61
30 29 29 30 30 30 31 32 33 35 35 36 37 38 40 41 42 43 44 45 45 46 46 47 49 49 50 51 52 52 53 54 55 56 57 57 57 57 57 57 58 60 60
28 29 29 29 29 30 31 32 33 34 34 36 38 39 40 41 42 43 43 44 45 45 46 47 49 50 51 51 52 52 53 54 54 54 54 55 56 57 56 56 57 58 58
Wind_Direction
245 245 243 240 239 238 236 235 236 236 236 236 236 235 235 235 236 237 239 241 243 242 243 245 248 252 256 259 262 264 267 270 272 275 277 280 283 285 287 288 290 292 293
245 245 244 240 238 238 237 236 236 237 236 236 237 237 235 235 236 238 238 239 242 244 244 246 249 251 255 258 261 264 267 269 272 274 276 278 281 283 285 287 289 291 292
244 244 243 240 238 238 238 237 237 237 238 237 238 237 236 236 236 237 238 241 243 244 245 247 249 251 254 258 260 263 265 268 270 273 276 279 281 283 284 285 287 289 291
245 243 241 239 238 237 238 238 238 238 239 239 239 238 237 238 238 238 239 240 242 243 245 247 249 251 254 258 261 263 265 267 270 273 276 279 281 282 284 285 286 288 289
245 242 239 237 237 236 237 238 238 238 239 239 239 239 238 239 240 240 241 242 244 245 246 248 250 253 256 258 261 262 265 267 269 272 275 277 279 281 283 284 286 287 289
244 243 240 238 236 236 236 237 239 239 238 239 238 239 239 240 241 243 243 244 245 246 248 249 251 253 255 258 260 262 264 266 269 272 275 276 278 280 281 283 285 287 288
246 244 242 240 238 238 237 237 239 241 239 238 238 238 239 240 241 243 244 244 246 247 249 251 254 254 255 257 259 261 263 265 269 271 273 275 276 278 280 282 284 286 288
247 245 244 241 240 240 238 238 239 241 240 238 238 239 240 241 242 243 244 245 246 247 249 251 253 255 257 257 260 262 264 266 268 270 272 274 276 278 280 282 284 286 287
249 246 244 243 243 241 240 239 240 240 240 239 239 240 241 242 242 243 245 246 247 248 250 251 254 256 259 259 261 263 265 267 268 269 271 273 276 278 280 282 283 285 286
250 246 245 245 243 242 241 240 240 241 242 241 241 242 243 244 243 243 244 246 247 248 250 251 254 257 258 259 261 264 265 267 269 270 272 274 276 278 280 281 283 285 286
250 246 246 246 245 244 243 242 242 242 243 243 242 243 245 246 246 245 245 246 248 249 251 252 253 256 257 259 262 263 265 267 269 271 273 274 276 278 280 282 283 284 286
249 248 248 248 247 245 245 244 242 243 244 244 243 244 245 246 246 246 246 247 249 249 251 253 253 255 258 260 262 262 265 267 269 271 273 275 276 278 280 281 282 284 285
252 249 248 247 247 247 246 245 243 244 244 244 243 244 245 246 246 246 247 248 250 250 251 253 254 255 257 259 261 263 265 267 269 271 273 275 276 277 278 280 281 283 284
255 252 251 249 248 247 247 246 244 244 245 244 245 245 245 246 247 247 247 249 250 250 251 254 254 255 257 259 261 263 265 266 269 271 273 275 276 277 278 278 280 282 284
256 255 253 252 250 248 248 248 246 246 246 246 246 247 247 247 248 248 248 250 251 251 252 254 256 257 259 261 262 264 265 266 269 271 272 275 276 276 278 279 279 281 283
256 254 253 252 251 249 249 249 248 247 248 248 247 247 248 249 249 249 251 252 253 254 255 255 257 259 261 262 263 266 266 267 269 270 272 273 275 276 277 278 280 282 283
256 255 254 253 252 251 250 250 249 248 248 248 249 249 248 249 250 251 252 253 254 255 256 258 259 260 261 263 265 266 267 267 269 270 272 272 274 276 278 279 281 283 284
258 257 255 254 254 252 251 251 250 250 249 250 251 250 249 250 250 252 252 252 253 255 257 259 260 261 262 263 265 266 267 268 269 270 272 273 274 276 278 279 281 282 283
259 259 258 256 255 253 251 251 252 251 250 251 252 252 251 251 251 251 251 252 254 256 257 259 260 261 262 264 265 266 267 269 269 270 272 273 275 277 278 279 281 282 283
260 259 258 256 255 254 253 252 252 253 252 253 253 252 252 251 251 251 252 253 255 256 257 259 260 261 262 264 265 266 267 269 270 271 272 273 275 277 278 279 281 282 283
259 258 256 255 255 255 255 254 253 254 254 254 254 252 252 252 252 252 253 255 256 257 258 259 261 263 263 264 266 267 268 270 270 271 273 274 276 277 279 280 281 282 283
259 259 258 257 255 256 257 256 255 254 254 254 254 252 251 252 253 253 254 256 257 259 260 260 261 263 265 266 267 269 271 271 271 271 273 274 276 278 279 281 281 282 282
259 259 259 258 256 256 256 256 256 255 255 255 254 253 253 253 253 254 254 256 257 259 261 261 262 264 265 267 269 271 272 273 273 273 274 276 277 279 280 281 282 282 283
259 260 260 259 257 256 256 255 255 256 257 257 256 255 255 255 256 256 256 257 259 261 262 263 264 266 268 269 271 272 273 275 274 274 275 277 278 280 282 282 282 282 283
260 260 260 259 258 256 255 256 256 256 257 257 256 257 257 257 257 258 259 260 261 263 264 265 266 267 268 270 271 273 274 276 275 275 276 277 278 280 281 282 283 283 284
261 261 260 260 258 256 255 256 258 258 259 258 258 258 260 260 260 261 261 262 263 265 266 267 268 268 270 271 272 274 275 275 276 277 277 278 280 281 281 282 283 284 284
Height
5776 5778 5780 5783 5786 5789 5792 5795 5797 5799 5802 5804 5807 5810 5813 5815 5818 5821 5823 5824 5826 5828 5829 5831 5832 5833 5834 5834 5835 5835 5835 5835 5835 5835 5835 5834 5834 5833 5832 5831 5830 5829 5827
5767 5769 5771 5775 5778 5781 5784 5787 5790 5793 5795 5798 5801 5803 5806 5809 5812 5814 5817 5819 5820 5822 5824 5825 5827 5828 5829 5829 5830 5830 5830 5830 5830 5830 5830 5830 5829 5828 5827 5826 5825 5824 5822
5757 5759 5762 5766 5770 5773 5777 5780 5783 5785 5788 5791 5794 5797 5799 5802 5805 5808 5810 5812 5814 5816 5818 5819 5821 5822 5823 5824 5824 5825 5825 5825 5825 5825 5824 5824 5823 5823 5822 5820 5819 5818 5817
5748 5750 5754 5758 5761 5765 5768 5772 5775 5778 5781 5784 5787 5789 5792 5795 5798 5800 5803 5805 5807 5809 5811 5813 5814 5816 5817 5817 5818 5818 5819 5819 5819 5819 5818 5818 5818 5817 5816 5814 5813 5812 5810
5738 5741 5745 5749 5752 5756 5760 5763 5766 5770 5773 5776 5779 5782 5785 5788 5790 5793 5796 5798 5800 5802 5804 5806 5807 5808 5810 5811 5811 5812 5812 5812 5813 5812 5812 5812 5811 5810 5809 5808 5807 5805 5804
5729 5733 5736 5740 5743 5747 5751 5755 5758 5761 5764 5768 5771 5774 5777 5780 5783 5785 5788 5790 5792 5795 5797 5799 5800 5801 5802 5803 5804 5805 5805 5805 5806 5806 5805 5805 5804 5803 5802 5801 5800 5798 5797
5721 5724 5727 5731 5734 5738 5742 5745 5748 5752 5755 5758 5762 5765 5768 5771 5774 5777 5780 5782 5784 5787 5789 5790 5792 5794 5795 5795 5796 5797 5797 5798 5798 5798 5798 5797 5797 5796 5795 5794 5792 5791 5789
5712 5715 5718 5722 5725 5728 5732 5736 5739 5742 5745 5749 5753 5756 5759 5763 5765 5768 5771 5774 5776 5778 5780 5782 5784 5785 5786 5787 5788 5789 5790 5790 5790 5790 5790 5789 5789 5788 5787 5786 5785 5783 5781
5703 5706 5709 5712 5715 5718 5722 5726 5730 5733 5736 5739 5743 5747 5750 5754 5757 5760 5762 5764 5767 5769 5771 5773 5775 5776 5777 5779 5780 5780 5781 5782 5782 5782 5781 5781 5780 5779 5778 5777 5776 5774 5773
5694 5697 5700 5703 5706 5709 5712 5716 5720 5723 5726 5729 5733 5737 5741 5744 5747 5751 5753 5755 5757 5760 5762 5764 5765 5767 5768 5769 5771 5772 5772 5773 5773 5773 5773 5772 5771 5770 5769 5768 5767 5765 5763
5685 5688 5691 5693 5696 5699 5702 5706 5709 5713 5717 5720 5723 5727 5730 5733 5736 5740 5743 5746 5748 5750 5752 5755 5756 5758 5759 5760 5761 5762 5763 5763 5763 5763 5763 5763 5762 5761 5760 5758 5757 5755 5753
5677 5679 5682 5684 5686 5689 5692 5695 5699 5702 5706 5710 5713 5716 5720 5723 5726 5729 5732 5736 5738 5741 5743 5744 5746 5748 5749 5750 5751 5752 5753 5753 5753 5753 5753 5752 5751 5751 5749 5748 5746 5744 5742
5668 5670 5673 5675 5677 5679 5682 5685 5688 5692 5695 5699 5702 5705 5709 5712 5715 5718 5721 5725 5727 5730 5732 5734 5735 5737 5739 5740 5741 5742 5742 5743 5743 5743 5742 5741 5741 5740 5738 5737 5735 5733 5731
5659 5661 5663 5665 5667 5670 5672 5675 5678 5681 5684 5688 5691 5694 5697 5701 5703 5707 5710 5713 5716 5719 5721 5723 5725 5726 5728 5729 5730 5730 5731 5731 5732 5731 5731 5730 5729 5728 5726 5725 5723 5721 5719
5650 5651 5653 5655 5658 5660 5662 5665 5668 5671 5673 5677 5680 5683 5686 5689 5692 5695 5698 5701 5704 5707 5710 5712 5713 5715 5716 5717 5718 5719 5720 5720 5720 5720 5719 5718 5717 5716 5714 5713 5711 5709 5707
5641 5642 5644 5646 5648 5650 5652 5654 5657 5659 5662 5665 5668 5671 5674 5678 5681 5684 5686 5689 5692 5694 5697 5700 5701 5703 5704 5705 5706 5707 5707 5708 5707 5707 5706 5706 5705 5704 5702 5700 5698 5696 5694
5632 5633 5635 5637 5638 5640 5642 5644 5647 5649 5652 5654 5656 5659 5663 5666 5669 5672 5674 5677 5679 5682 5684 5687 5688 5690 5691 5692 5693 5694 5694 5694 5694 5694 5693 5693 5692 5690 5689 5687 5685 5682 5679
5623 5624 5625 5627 5628 5630 5632 5634 5637 5639 5641 5644 5646 5648 5651 5654 5657 5660 5662 5665 5667 5669 5672 5674 5675 5677 5678 5679 5680 5681 5681 5681 5681 5680 5680 5679 5678 5676 5674 5673 5670 5668 5665
5613 5614 5615 5616 5618 5620 5622 5624 5626 5628 5631 5633 5635 5637 5640 5642 5645 5648 5650 5653 5655 5657 5659 5661 5663 5664 5665 5665 5666 5667 5667 5667 5667 5666 5666 5665 5664 5662 5660 5658 5655 5652 5649
5604 5604 5605 5606 5608 5609 5611 5613 5615 5618 5620 5622 5624 5626 5628 5631 5634 5636 5638 5640 5642 5644 5646 5648 5649 5650 5651 5651 5652 5652 5652 5652 5652 5652 5651 5650 5649 5647 5645 5642 5640 5637 5634
5594 5595 5596 5597 5598 5599 5601 5603 5605 5607 5609 5611 5613 5615 5617 5619 5622 5624 5626 5628 5630 5632 5633 5635 5636 5637 5637 5638 5638 5638 5638 5638 5638 5637 5636 5636 5634 5632 5629 5627 5624 5620 5617
5585 5586 5587 5588 5589 5590 5592 5593 5595 5597 5599 5600 5602 5604 5606 5608 5610 5612 5614 5616 5618 5619 5620 5622 5623 5624 5624 5624 5624 5624 5624 5624 5624 5624 5621 5620 5618 5616 5614 5611 5608 5604 5601
5577 5577 5578 5579 5580 5581 5582 5584 5585 5587 5589 5591 5592 5594 5595 5597 5599 5601 5602 5604 5605 5606 5607 5608 5610 5610 5611 5612 5611 5611 5610 5609 5608 5607 5606 5605 5602 5600 5597 5594 5591 5588 5585
5569 5569 5570 5571 5572 5572 5573 5575 5576 5578 5579 5581 5582 5583 5585 5586 5588 5589 5591 5592 5593 5594 5595 5596 5597 5598 5597 5597 5597 5596 5595 5594 5593 5591 5590 5589 5587 5584 5581 5578 5575 5572 5569
5561 5561 5561 5562 5563 5563 5564 5565 5567 5568 5569 5571 5572 5573 5574 5576 5577 5578 5579 5581 5582 5582 5582 5583 5584 5584 5584 5583 5582 5581 5580 5579 5578 5576 5574 5573 5571 5569 5566 5563 5559 5556 5553
5552 5552 5553 5553 5554 5555 5556 5557 5558 5559 5560 5561 5562 5562 5564 5565 5566 5566 5567 5568 5569 5570 5570 5570 5570 5570 5569 5568 5567 5566 5565 5564 5562 5561 5559 5557 5555 5552 5551 5548 5544 5540 5537